#datetime,building,power
2024-04-13T00:00:00,mfh,28.41
2024-04-13T00:01:00,mfh,28.53
2024-04-13T00:02:00,mfh,28.87
2024-04-13T00:03:00,mfh,27.74
2024-04-13T00:04:00,mfh,27.83
2024-04-13T00:05:00,mfh,28.57
2024-04-13T00:06:00,mfh,27.86
2024-04-13T00:07:00,mfh,29.03
2024-04-13T00:08:00,mfh,29.10
2024-04-13T00:09:00,mfh,28.42
2024-04-13T00:10:00,mfh,29.01
2024-04-13T00:11:00,mfh,28.44
2024-04-13T00:12:00,mfh,28.39
2024-04-13T00:13:00,mfh,28.47
2024-04-13T00:14:00,mfh,27.77
2024-04-13T00:15:00,mfh,27.73
2024-04-13T00:16:00,mfh,27.69
2024-04-13T00:17:00,mfh,28.34
2024-04-13T00:18:00,mfh,28.28
2024-04-13T00:19:00,mfh,28.64
2024-04-13T00:20:00,mfh,28.66
2024-04-13T00:21:00,mfh,28.26
2024-04-13T00:22:00,mfh,27.60
2024-04-13T00:23:00,mfh,28.04
2024-04-13T00:24:00,mfh,27.66
2024-04-13T00:25:00,mfh,27.79
2024-04-13T00:26:00,mfh,28.38
2024-04-13T00:27:00,mfh,28.39
2024-04-13T00:28:00,mfh,28.39
2024-04-13T00:29:00,mfh,28.67
2024-04-13T00:30:00,mfh,28.66
2024-04-13T00:31:00,mfh,28.71
2024-04-13T00:32:00,mfh,27.90
2024-04-13T00:33:00,mfh,28.27
2024-04-13T00:34:00,mfh,29.02
2024-04-13T00:35:00,mfh,29.14
2024-04-13T00:36:00,mfh,29.96
2024-04-13T00:37:00,mfh,29.76
2024-04-13T00:38:00,mfh,29.29
2024-04-13T00:39:00,mfh,29.43
2024-04-13T00:40:00,mfh,29.94
2024-04-13T00:41:00,mfh,29.35
2024-04-13T00:42:00,mfh,28.65
2024-04-13T00:43:00,mfh,28.60
2024-04-13T00:44:00,mfh,28.61
2024-04-13T00:45:00,mfh,29.16
2024-04-13T00:46:00,mfh,29.05
2024-04-13T00:47:00,mfh,29.06
2024-04-13T00:48:00,mfh,29.05
2024-04-13T00:49:00,mfh,29.28
2024-04-13T00:50:00,mfh,28.71
2024-04-13T00:51:00,mfh,28.78
2024-04-13T00:52:00,mfh,29.20
2024-04-13T00:53:00,mfh,28.03
2024-04-13T00:54:00,mfh,28.05
2024-04-13T00:55:00,mfh,28.11
2024-04-13T00:56:00,mfh,29.84
2024-04-13T00:57:00,mfh,30.73
2024-04-13T00:58:00,mfh,30.58
2024-04-13T00:59:00,mfh,30.66
2024-04-13T01:00:00,mfh,30.66
2024-04-13T01:01:00,mfh,33.93
2024-04-13T01:02:00,mfh,33.07
2024-04-13T01:03:00,mfh,34.25
2024-04-13T01:04:00,mfh,37.15
2024-04-13T01:05:00,mfh,37.65
2024-04-13T01:06:00,mfh,37.66
2024-04-13T01:07:00,mfh,37.60
2024-04-13T01:08:00,mfh,38.00
2024-04-13T01:09:00,mfh,37.77
2024-04-13T01:10:00,mfh,37.77
2024-04-13T01:11:00,mfh,37.97
2024-04-13T01:12:00,mfh,38.55
2024-04-13T01:13:00,mfh,37.58
2024-04-13T01:14:00,mfh,37.72
2024-04-13T01:15:00,mfh,38.06
2024-04-13T01:16:00,mfh,38.27
2024-04-13T01:17:00,mfh,38.21
2024-04-13T01:18:00,mfh,35.23
2024-04-13T01:19:00,mfh,35.44
2024-04-13T01:20:00,mfh,35.65
2024-04-13T01:21:00,mfh,31.80
2024-04-13T01:22:00,mfh,31.61
2024-04-13T01:23:00,mfh,31.02
2024-04-13T01:24:00,mfh,30.28
2024-04-13T01:25:00,mfh,30.65
2024-04-13T01:26:00,mfh,30.41
2024-04-13T01:27:00,mfh,31.08
2024-04-13T01:28:00,mfh,30.91
2024-04-13T01:29:00,mfh,30.97
2024-04-13T01:30:00,mfh,31.36
2024-04-13T01:31:00,mfh,30.79
2024-04-13T01:32:00,mfh,30.92
2024-04-13T01:33:00,mfh,30.78
2024-04-13T01:34:00,mfh,30.91
2024-04-13T01:35:00,mfh,30.75
2024-04-13T01:36:00,mfh,30.45
2024-04-13T01:37:00,mfh,30.12
2024-04-13T01:38:00,mfh,30.71
2024-04-13T01:39:00,mfh,30.83
2024-04-13T01:40:00,mfh,30.80
2024-04-13T01:41:00,mfh,30.81
2024-04-13T01:42:00,mfh,31.18
2024-04-13T01:43:00,mfh,30.95
2024-04-13T01:44:00,mfh,31.67
2024-04-13T01:45:00,mfh,31.05
2024-04-13T01:46:00,mfh,30.42
2024-04-13T01:47:00,mfh,30.40
2024-04-13T01:48:00,mfh,30.37
2024-04-13T01:49:00,mfh,30.97
2024-04-13T01:50:00,mfh,31.03
2024-04-13T01:51:00,mfh,31.09
2024-04-13T01:52:00,mfh,30.90
2024-04-13T01:53:00,mfh,31.66
2024-04-13T01:54:00,mfh,31.58
2024-04-13T01:55:00,mfh,32.27
2024-04-13T01:56:00,mfh,32.98
2024-04-13T01:57:00,mfh,31.71
2024-04-13T01:58:00,mfh,31.07
2024-04-13T01:59:00,mfh,30.30
2024-04-13T02:00:00,mfh,30.24
2024-04-13T02:01:00,mfh,30.81
2024-04-13T02:02:00,mfh,30.88
2024-04-13T02:03:00,mfh,30.88
2024-04-13T02:04:00,mfh,31.38
2024-04-13T02:05:00,mfh,30.88
2024-04-13T02:06:00,mfh,30.83
2024-04-13T02:07:00,mfh,30.14
2024-04-13T02:08:00,mfh,30.21
2024-04-13T02:09:00,mfh,30.14
2024-04-13T02:10:00,mfh,30.18
2024-04-13T02:11:00,mfh,30.79
2024-04-13T02:12:00,mfh,30.87
2024-04-13T02:13:00,mfh,30.90
2024-04-13T02:14:00,mfh,30.92
2024-04-13T02:15:00,mfh,30.86
2024-04-13T02:16:00,mfh,31.05
2024-04-13T02:17:00,mfh,31.43
2024-04-13T02:18:00,mfh,31.68
2024-04-13T02:19:00,mfh,30.23
2024-04-13T02:20:00,mfh,30.22
2024-04-13T02:21:00,mfh,30.84
2024-04-13T02:22:00,mfh,30.83
2024-04-13T02:23:00,mfh,31.07
2024-04-13T02:24:00,mfh,30.84
2024-04-13T02:25:00,mfh,31.06
2024-04-13T02:26:00,mfh,31.39
2024-04-13T02:27:00,mfh,31.07
2024-04-13T02:28:00,mfh,31.09
2024-04-13T02:29:00,mfh,30.40
2024-04-13T02:30:00,mfh,30.39
2024-04-13T02:31:00,mfh,30.28
2024-04-13T02:32:00,mfh,31.09
2024-04-13T02:33:00,mfh,31.47
2024-04-13T02:34:00,mfh,31.25
2024-04-13T02:35:00,mfh,31.17
2024-04-13T02:36:00,mfh,31.10
2024-04-13T02:37:00,mfh,31.24
2024-04-13T02:38:00,mfh,31.16
2024-04-13T02:39:00,mfh,31.85
2024-04-13T02:40:00,mfh,31.09
2024-04-13T02:41:00,mfh,30.51
2024-04-13T02:42:00,mfh,30.34
2024-04-13T02:43:00,mfh,31.04
2024-04-13T02:44:00,mfh,31.05
2024-04-13T02:45:00,mfh,30.97
2024-04-13T02:46:00,mfh,31.45
2024-04-13T02:47:00,mfh,30.92
2024-04-13T02:48:00,mfh,30.86
2024-04-13T02:49:00,mfh,32.09
2024-04-13T02:50:00,mfh,30.58
2024-04-13T02:51:00,mfh,30.23
2024-04-13T02:52:00,mfh,30.46
2024-04-13T02:53:00,mfh,30.41
2024-04-13T02:54:00,mfh,31.19
2024-04-13T02:55:00,mfh,31.34
2024-04-13T02:56:00,mfh,31.13
2024-04-13T02:57:00,mfh,30.81
2024-04-13T02:58:00,mfh,30.85
2024-04-13T02:59:00,mfh,30.94
2024-04-13T03:00:00,mfh,31.13
2024-04-13T03:01:00,mfh,30.22
2024-04-13T03:02:00,mfh,30.92
2024-04-13T03:03:00,mfh,30.14
2024-04-13T03:04:00,mfh,30.78
2024-04-13T03:05:00,mfh,30.72
2024-04-13T03:06:00,mfh,30.90
2024-04-13T03:07:00,mfh,30.83
2024-04-13T03:08:00,mfh,31.27
2024-04-13T03:09:00,mfh,31.46
2024-04-13T03:10:00,mfh,30.90
2024-04-13T03:11:00,mfh,30.91
2024-04-13T03:12:00,mfh,30.74
2024-04-13T03:13:00,mfh,30.14
2024-04-13T03:14:00,mfh,30.10
2024-04-13T03:15:00,mfh,30.10
2024-04-13T03:16:00,mfh,30.83
2024-04-13T03:17:00,mfh,31.43
2024-04-13T03:18:00,mfh,30.81
2024-04-13T03:19:00,mfh,30.67
2024-04-13T03:20:00,mfh,30.64
2024-04-13T03:21:00,mfh,30.62
2024-04-13T03:22:00,mfh,30.67
2024-04-13T03:23:00,mfh,30.76
2024-04-13T03:24:00,mfh,30.15
2024-04-13T03:25:00,mfh,30.16
2024-04-13T03:26:00,mfh,30.77
2024-04-13T03:27:00,mfh,31.63
2024-04-13T03:28:00,mfh,30.71
2024-04-13T03:29:00,mfh,30.77
2024-04-13T03:30:00,mfh,30.88
2024-04-13T03:31:00,mfh,30.92
2024-04-13T03:32:00,mfh,30.78
2024-04-13T03:33:00,mfh,30.87
2024-04-13T03:34:00,mfh,30.46
2024-04-13T03:35:00,mfh,30.12
2024-04-13T03:36:00,mfh,30.07
2024-04-13T03:37:00,mfh,30.71
2024-04-13T03:38:00,mfh,30.98
2024-04-13T03:39:00,mfh,30.72
2024-04-13T03:40:00,mfh,30.84
2024-04-13T03:41:00,mfh,30.73
2024-04-13T03:42:00,mfh,30.80
2024-04-13T03:43:00,mfh,30.78
2024-04-13T03:44:00,mfh,31.19
2024-04-13T03:45:00,mfh,30.02
2024-04-13T03:46:00,mfh,30.04
2024-04-13T03:47:00,mfh,30.07
2024-04-13T03:48:00,mfh,30.72
2024-04-13T03:49:00,mfh,30.81
2024-04-13T03:50:00,mfh,31.19
2024-04-13T03:51:00,mfh,30.70
2024-04-13T03:52:00,mfh,30.75
2024-04-13T03:53:00,mfh,30.83
2024-04-13T03:54:00,mfh,31.26
2024-04-13T03:55:00,mfh,30.11
2024-04-13T03:56:00,mfh,30.07
2024-04-13T03:57:00,mfh,31.26
2024-04-13T03:58:00,mfh,30.73
2024-04-13T03:59:00,mfh,30.69
2024-04-13T04:00:00,mfh,32.23
2024-04-13T04:01:00,mfh,32.64
2024-04-13T04:02:00,mfh,32.63
2024-04-13T04:03:00,mfh,32.58
2024-04-13T04:04:00,mfh,32.55
2024-04-13T04:05:00,mfh,33.15
2024-04-13T04:06:00,mfh,31.04
2024-04-13T04:07:00,mfh,30.21
2024-04-13T04:08:00,mfh,30.10
2024-04-13T04:09:00,mfh,30.36
2024-04-13T04:10:00,mfh,30.62
2024-04-13T04:11:00,mfh,31.11
2024-04-13T04:12:00,mfh,30.52
2024-04-13T04:13:00,mfh,30.52
2024-04-13T04:14:00,mfh,30.60
2024-04-13T04:15:00,mfh,30.59
2024-04-13T04:16:00,mfh,30.62
2024-04-13T04:17:00,mfh,30.75
2024-04-13T04:18:00,mfh,30.01
2024-04-13T04:19:00,mfh,30.05
2024-04-13T04:20:00,mfh,30.43
2024-04-13T04:21:00,mfh,30.54
2024-04-13T04:22:00,mfh,31.14
2024-04-13T04:23:00,mfh,31.27
2024-04-13T04:24:00,mfh,31.32
2024-04-13T04:25:00,mfh,31.22
2024-04-13T04:26:00,mfh,31.28
2024-04-13T04:27:00,mfh,31.31
2024-04-13T04:28:00,mfh,31.35
2024-04-13T04:29:00,mfh,29.99
2024-04-13T04:30:00,mfh,30.80
2024-04-13T04:31:00,mfh,30.14
2024-04-13T04:32:00,mfh,30.77
2024-04-13T04:33:00,mfh,30.84
2024-04-13T04:34:00,mfh,30.71
2024-04-13T04:35:00,mfh,31.51
2024-04-13T04:36:00,mfh,31.16
2024-04-13T04:37:00,mfh,31.15
2024-04-13T04:38:00,mfh,30.69
2024-04-13T04:39:00,mfh,30.72
2024-04-13T04:40:00,mfh,30.10
2024-04-13T04:41:00,mfh,30.22
2024-04-13T04:42:00,mfh,30.30
2024-04-13T04:43:00,mfh,30.87
2024-04-13T04:44:00,mfh,30.95
2024-04-13T04:45:00,mfh,30.97
2024-04-13T04:46:00,mfh,30.91
2024-04-13T04:47:00,mfh,30.60
2024-04-13T04:48:00,mfh,30.52
2024-04-13T04:49:00,mfh,30.50
2024-04-13T04:50:00,mfh,30.43
2024-04-13T04:51:00,mfh,29.84
2024-04-13T04:52:00,mfh,30.08
2024-04-13T04:53:00,mfh,29.86
2024-04-13T04:54:00,mfh,30.54
2024-04-13T04:55:00,mfh,30.66
2024-04-13T04:56:00,mfh,30.63
2024-04-13T04:57:00,mfh,30.65
2024-04-13T04:58:00,mfh,30.58
2024-04-13T04:59:00,mfh,31.02
2024-04-13T05:00:00,mfh,30.57
2024-04-13T05:01:00,mfh,46.86
2024-04-13T05:02:00,mfh,49.87
2024-04-13T05:03:00,mfh,49.89
2024-04-13T05:04:00,mfh,49.83
2024-04-13T05:05:00,mfh,50.61
2024-04-13T05:06:00,mfh,50.25
2024-04-13T05:07:00,mfh,50.07
2024-04-13T05:08:00,mfh,50.16
2024-04-13T05:09:00,mfh,50.09
2024-04-13T05:10:00,mfh,49.48
2024-04-13T05:11:00,mfh,50.65
2024-04-13T05:12:00,mfh,49.90
2024-04-13T05:13:00,mfh,49.16
2024-04-13T05:14:00,mfh,49.44
2024-04-13T05:15:00,mfh,49.51
2024-04-13T05:16:00,mfh,50.37
2024-04-13T05:17:00,mfh,50.73
2024-04-13T05:18:00,mfh,50.77
2024-04-13T05:19:00,mfh,49.31
2024-04-13T05:20:00,mfh,49.84
2024-04-13T05:21:00,mfh,50.18
2024-04-13T05:22:00,mfh,50.24
2024-04-13T05:23:00,mfh,50.32
2024-04-13T05:24:00,mfh,50.20
2024-04-13T05:25:00,mfh,50.57
2024-04-13T05:26:00,mfh,50.30
2024-04-13T05:27:00,mfh,49.77
2024-04-13T05:28:00,mfh,50.31
2024-04-13T05:29:00,mfh,49.75
2024-04-13T05:30:00,mfh,49.82
2024-04-13T05:31:00,mfh,51.14
2024-04-13T05:32:00,mfh,50.15
2024-04-13T05:33:00,mfh,50.56
2024-04-13T05:34:00,mfh,50.73
2024-04-13T05:35:00,mfh,50.10
2024-04-13T05:36:00,mfh,49.98
2024-04-13T05:37:00,mfh,49.93
2024-04-13T05:38:00,mfh,50.89
2024-04-13T05:39:00,mfh,49.26
2024-04-13T05:40:00,mfh,49.23
2024-04-13T05:41:00,mfh,50.01
2024-04-13T05:42:00,mfh,49.81
2024-04-13T05:43:00,mfh,50.12
2024-04-13T05:44:00,mfh,50.10
2024-04-13T05:45:00,mfh,50.98
2024-04-13T05:46:00,mfh,49.82
2024-04-13T05:47:00,mfh,49.78
2024-04-13T05:48:00,mfh,49.30
2024-04-13T05:49:00,mfh,49.38
2024-04-13T05:50:00,mfh,49.96
2024-04-13T05:51:00,mfh,49.59
2024-04-13T05:52:00,mfh,49.43
2024-04-13T05:53:00,mfh,49.68
2024-04-13T05:54:00,mfh,49.75
2024-04-13T05:55:00,mfh,50.14
2024-04-13T05:56:00,mfh,49.61
2024-04-13T05:57:00,mfh,49.91
2024-04-13T05:58:00,mfh,49.83
2024-04-13T05:59:00,mfh,50.20
2024-04-13T06:00:00,mfh,49.58
2024-04-13T06:01:00,mfh,49.41
2024-04-13T06:02:00,mfh,49.92
2024-04-13T06:03:00,mfh,49.64
2024-04-13T06:04:00,mfh,50.10
2024-04-13T06:05:00,mfh,49.53
2024-04-13T06:06:00,mfh,49.12
2024-04-13T06:07:00,mfh,49.12
2024-04-13T06:08:00,mfh,49.08
2024-04-13T06:09:00,mfh,49.20
2024-04-13T06:10:00,mfh,49.08
2024-04-13T06:11:00,mfh,48.27
2024-04-13T06:12:00,mfh,49.23
2024-04-13T06:13:00,mfh,48.98
2024-04-13T06:14:00,mfh,48.94
2024-04-13T06:15:00,mfh,48.93
2024-04-13T06:16:00,mfh,48.63
2024-04-13T06:17:00,mfh,49.00
2024-04-13T06:18:00,mfh,48.93
2024-04-13T06:19:00,mfh,48.95
2024-04-13T06:20:00,mfh,48.26
2024-04-13T06:21:00,mfh,48.50
2024-04-13T06:22:00,mfh,49.10
2024-04-13T06:23:00,mfh,50.39
2024-04-13T06:24:00,mfh,49.68
2024-04-13T06:25:00,mfh,49.17
2024-04-13T06:26:00,mfh,49.17
2024-04-13T06:27:00,mfh,49.44
2024-04-13T06:28:00,mfh,49.49
2024-04-13T06:29:00,mfh,48.98
2024-04-13T06:30:00,mfh,49.21
2024-04-13T06:31:00,mfh,48.76
2024-04-13T06:32:00,mfh,48.67
2024-04-13T06:33:00,mfh,49.30
2024-04-13T06:34:00,mfh,49.15
2024-04-13T06:35:00,mfh,49.37
2024-04-13T06:36:00,mfh,49.30
2024-04-13T06:37:00,mfh,49.25
2024-04-13T06:38:00,mfh,49.54
2024-04-13T06:39:00,mfh,49.45
2024-04-13T06:40:00,mfh,48.80
2024-04-13T06:41:00,mfh,48.81
2024-04-13T06:42:00,mfh,48.74
2024-04-13T06:43:00,mfh,48.81
2024-04-13T06:44:00,mfh,49.54
2024-04-13T06:45:00,mfh,49.26
2024-04-13T06:46:00,mfh,49.36
2024-04-13T06:47:00,mfh,49.23
2024-04-13T06:48:00,mfh,49.27
2024-04-13T06:49:00,mfh,49.35
2024-04-13T06:50:00,mfh,48.58
2024-04-13T06:51:00,mfh,48.49
2024-04-13T06:52:00,mfh,48.60
2024-04-13T06:53:00,mfh,49.10
2024-04-13T06:54:00,mfh,49.11
2024-04-13T06:55:00,mfh,49.26
2024-04-13T06:56:00,mfh,49.22
2024-04-13T06:57:00,mfh,49.20
2024-04-13T06:58:00,mfh,49.68
2024-04-13T06:59:00,mfh,49.18
2024-04-13T07:00:00,mfh,48.76
2024-04-13T07:01:00,mfh,48.47
2024-04-13T07:02:00,mfh,48.57
2024-04-13T07:03:00,mfh,49.12
2024-04-13T07:04:00,mfh,49.94
2024-04-13T07:05:00,mfh,50.45
2024-04-13T07:06:00,mfh,50.57
2024-04-13T07:07:00,mfh,50.59
2024-04-13T07:08:00,mfh,49.92
2024-04-13T07:09:00,mfh,50.48
2024-04-13T07:10:00,mfh,48.41
2024-04-13T07:11:00,mfh,48.46
2024-04-13T07:12:00,mfh,48.62
2024-04-13T07:13:00,mfh,49.09
2024-04-13T07:14:00,mfh,50.59
2024-04-13T07:15:00,mfh,48.90
2024-04-13T07:16:00,mfh,49.35
2024-04-13T07:17:00,mfh,49.00
2024-04-13T07:18:00,mfh,50.09
2024-04-13T07:19:00,mfh,49.57
2024-04-13T07:20:00,mfh,49.23
2024-04-13T07:21:00,mfh,49.56
2024-04-13T07:22:00,mfh,48.67
2024-04-13T07:23:00,mfh,48.72
2024-04-13T07:24:00,mfh,48.88
2024-04-13T07:25:00,mfh,49.65
2024-04-13T07:26:00,mfh,49.29
2024-04-13T07:27:00,mfh,49.18
2024-04-13T07:28:00,mfh,48.60
2024-04-13T07:29:00,mfh,49.38
2024-04-13T07:30:00,mfh,49.14
2024-04-13T07:31:00,mfh,49.03
2024-04-13T07:32:00,mfh,48.49
2024-04-13T07:33:00,mfh,48.42
2024-04-13T07:34:00,mfh,49.48
2024-04-13T07:35:00,mfh,48.94
2024-04-13T07:36:00,mfh,48.87
2024-04-13T07:37:00,mfh,49.45
2024-04-13T07:38:00,mfh,48.97
2024-04-13T07:39:00,mfh,49.12
2024-04-13T07:40:00,mfh,49.34
2024-04-13T07:41:00,mfh,48.61
2024-04-13T07:42:00,mfh,48.81
2024-04-13T07:43:00,mfh,48.96
2024-04-13T07:44:00,mfh,49.52
2024-04-13T07:45:00,mfh,49.64
2024-04-13T07:46:00,mfh,49.32
2024-04-13T07:47:00,mfh,50.29
2024-04-13T07:48:00,mfh,49.69
2024-04-13T07:49:00,mfh,50.32
2024-04-13T07:50:00,mfh,49.41
2024-04-13T07:51:00,mfh,48.69
2024-04-13T07:52:00,mfh,48.62
2024-04-13T07:53:00,mfh,48.61
2024-04-13T07:54:00,mfh,49.22
2024-04-13T07:55:00,mfh,49.27
2024-04-13T07:56:00,mfh,49.36
2024-04-13T07:57:00,mfh,49.12
2024-04-13T07:58:00,mfh,49.19
2024-04-13T07:59:00,mfh,48.89
2024-04-13T08:00:00,mfh,49.02
2024-04-13T08:01:00,mfh,48.22
2024-04-13T08:02:00,mfh,48.45
2024-04-13T08:03:00,mfh,48.32
2024-04-13T08:04:00,mfh,48.90
2024-04-13T08:05:00,mfh,48.86
2024-04-13T08:06:00,mfh,48.94
2024-04-13T08:07:00,mfh,49.95
2024-04-13T08:08:00,mfh,48.99
2024-04-13T08:09:00,mfh,49.09
2024-04-13T08:10:00,mfh,48.96
2024-04-13T08:11:00,mfh,48.27
2024-04-13T08:12:00,mfh,48.91
2024-04-13T08:13:00,mfh,48.26
2024-04-13T08:14:00,mfh,48.51
2024-04-13T08:15:00,mfh,48.89
2024-04-13T08:16:00,mfh,49.14
2024-04-13T08:17:00,mfh,48.86
2024-04-13T08:18:00,mfh,50.03
2024-04-13T08:19:00,mfh,49.15
2024-04-13T08:20:00,mfh,49.74
2024-04-13T08:21:00,mfh,48.60
2024-04-13T08:22:00,mfh,48.84
2024-04-13T08:23:00,mfh,48.81
2024-04-13T08:24:00,mfh,49.10
2024-04-13T08:25:00,mfh,49.61
2024-04-13T08:26:00,mfh,49.09
2024-04-13T08:27:00,mfh,49.09
2024-04-13T08:28:00,mfh,49.03
2024-04-13T08:29:00,mfh,49.40
2024-04-13T08:30:00,mfh,49.19
2024-04-13T08:31:00,mfh,54.15
2024-04-13T08:32:00,mfh,53.42
2024-04-13T08:33:00,mfh,53.44
2024-04-13T08:34:00,mfh,52.66
2024-04-13T08:35:00,mfh,52.69
2024-04-13T08:36:00,mfh,53.25
2024-04-13T08:37:00,mfh,53.84
2024-04-13T08:38:00,mfh,53.78
2024-04-13T08:39:00,mfh,53.74
2024-04-13T08:40:00,mfh,53.83
2024-04-13T08:41:00,mfh,53.80
2024-04-13T08:42:00,mfh,53.62
2024-04-13T08:43:00,mfh,54.15
2024-04-13T08:44:00,mfh,53.43
2024-04-13T08:45:00,mfh,53.63
2024-04-13T08:46:00,mfh,53.49
2024-04-13T08:47:00,mfh,53.50
2024-04-13T08:48:00,mfh,53.39
2024-04-13T08:49:00,mfh,53.37
2024-04-13T08:50:00,mfh,65.04
2024-04-13T08:51:00,mfh,64.70
2024-04-13T08:52:00,mfh,64.75
2024-04-13T08:53:00,mfh,68.73
2024-04-13T08:54:00,mfh,69.11
2024-04-13T08:55:00,mfh,69.30
2024-04-13T08:56:00,mfh,70.10
2024-04-13T08:57:00,mfh,69.97
2024-04-13T08:58:00,mfh,70.33
2024-04-13T08:59:00,mfh,69.34
2024-04-13T09:00:00,mfh,69.55
2024-04-13T09:01:00,mfh,69.27
2024-04-13T09:02:00,mfh,70.69
2024-04-13T09:03:00,mfh,70.08
2024-04-13T09:04:00,mfh,65.91
2024-04-13T09:05:00,mfh,65.72
2024-04-13T09:06:00,mfh,65.37
2024-04-13T09:07:00,mfh,65.22
2024-04-13T09:08:00,mfh,65.53
2024-04-13T09:09:00,mfh,60.90
2024-04-13T09:10:00,mfh,57.65
2024-04-13T09:11:00,mfh,53.94
2024-04-13T09:12:00,mfh,53.84
2024-04-13T09:13:00,mfh,54.06
2024-04-13T09:14:00,mfh,54.08
2024-04-13T09:15:00,mfh,54.02
2024-04-13T09:16:00,mfh,61.38
2024-04-13T09:17:00,mfh,60.58
2024-04-13T09:18:00,mfh,62.68
2024-04-13T09:19:00,mfh,63.28
2024-04-13T09:20:00,mfh,63.80
2024-04-13T09:21:00,mfh,64.43
2024-04-13T09:22:00,mfh,64.63
2024-04-13T09:23:00,mfh,64.12
2024-04-13T09:24:00,mfh,64.09
2024-04-13T09:25:00,mfh,64.28
2024-04-13T09:26:00,mfh,65.19
2024-04-13T09:27:00,mfh,65.15
2024-04-13T09:28:00,mfh,65.01
2024-04-13T09:29:00,mfh,64.99
2024-04-13T09:30:00,mfh,65.32
2024-04-13T09:31:00,mfh,65.05
2024-04-13T09:32:00,mfh,64.72
2024-04-13T09:33:00,mfh,65.82
2024-04-13T09:34:00,mfh,64.93
2024-04-13T09:35:00,mfh,65.08
2024-04-13T09:36:00,mfh,64.69
2024-04-13T09:37:00,mfh,65.48
2024-04-13T09:38:00,mfh,65.27
2024-04-13T09:39:00,mfh,64.38
2024-04-13T09:40:00,mfh,63.48
2024-04-13T09:41:00,mfh,63.63
2024-04-13T09:42:00,mfh,63.24
2024-04-13T09:43:00,mfh,63.52
2024-04-13T09:44:00,mfh,63.74
2024-04-13T09:45:00,mfh,63.75
2024-04-13T09:46:00,mfh,64.72
2024-04-13T09:47:00,mfh,63.52
2024-04-13T09:48:00,mfh,63.67
2024-04-13T09:49:00,mfh,64.49
2024-04-13T09:50:00,mfh,63.82
2024-04-13T09:51:00,mfh,62.87
2024-04-13T09:52:00,mfh,63.03
2024-04-13T09:53:00,mfh,64.39
2024-04-13T09:54:00,mfh,64.31
2024-04-13T09:55:00,mfh,64.39
2024-04-13T09:56:00,mfh,64.25
2024-04-13T09:57:00,mfh,64.92
2024-04-13T09:58:00,mfh,65.02
2024-04-13T09:59:00,mfh,64.71
2024-04-13T10:00:00,mfh,63.14
2024-04-13T10:01:00,mfh,63.83
2024-04-13T10:02:00,mfh,62.84
2024-04-13T10:03:00,mfh,63.45
2024-04-13T10:04:00,mfh,62.86
2024-04-13T10:05:00,mfh,63.13
2024-04-13T10:06:00,mfh,67.34
2024-04-13T10:07:00,mfh,67.39
2024-04-13T10:08:00,mfh,78.03
2024-04-13T10:09:00,mfh,78.47
2024-04-13T10:10:00,mfh,79.04
2024-04-13T10:11:00,mfh,79.06
2024-04-13T10:12:00,mfh,79.91
2024-04-13T10:13:00,mfh,78.95
2024-04-13T10:14:00,mfh,78.85
2024-04-13T10:15:00,mfh,79.48
2024-04-13T10:16:00,mfh,79.91
2024-04-13T10:17:00,mfh,78.73
2024-04-13T10:18:00,mfh,78.75
2024-04-13T10:19:00,mfh,78.96
2024-04-13T10:20:00,mfh,78.94
2024-04-13T10:21:00,mfh,79.34
2024-04-13T10:22:00,mfh,78.87
2024-04-13T10:23:00,mfh,78.89
2024-04-13T10:24:00,mfh,78.91
2024-04-13T10:25:00,mfh,78.97
2024-04-13T10:26:00,mfh,78.74
2024-04-13T10:27:00,mfh,78.80
2024-04-13T10:28:00,mfh,77.59
2024-04-13T10:29:00,mfh,78.72
2024-04-13T10:30:00,mfh,74.55
2024-04-13T10:31:00,mfh,74.07
2024-04-13T10:32:00,mfh,74.09
2024-04-13T10:33:00,mfh,66.49
2024-04-13T10:34:00,mfh,66.10
2024-04-13T10:35:00,mfh,66.25
2024-04-13T10:36:00,mfh,66.35
2024-04-13T10:37:00,mfh,65.63
2024-04-13T10:38:00,mfh,65.56
2024-04-13T10:39:00,mfh,66.39
2024-04-13T10:40:00,mfh,67.06
2024-04-13T10:41:00,mfh,67.31
2024-04-13T10:42:00,mfh,66.50
2024-04-13T10:43:00,mfh,67.94
2024-04-13T10:44:00,mfh,68.09
2024-04-13T10:45:00,mfh,68.15
2024-04-13T10:46:00,mfh,68.11
2024-04-13T10:47:00,mfh,67.86
2024-04-13T10:48:00,mfh,67.81
2024-04-13T10:49:00,mfh,67.48
2024-04-13T10:50:00,mfh,67.54
2024-04-13T10:51:00,mfh,67.19
2024-04-13T10:52:00,mfh,68.11
2024-04-13T10:53:00,mfh,66.53
2024-04-13T10:54:00,mfh,67.02
2024-04-13T10:55:00,mfh,66.76
2024-04-13T10:56:00,mfh,66.90
2024-04-13T10:57:00,mfh,66.97
2024-04-13T10:58:00,mfh,66.81
2024-04-13T10:59:00,mfh,67.28
2024-04-13T11:00:00,mfh,67.34
2024-04-13T11:01:00,mfh,67.99
2024-04-13T11:02:00,mfh,67.69
2024-04-13T11:03:00,mfh,67.26
2024-04-13T11:04:00,mfh,67.10
2024-04-13T11:05:00,mfh,67.98
2024-04-13T11:06:00,mfh,67.73
2024-04-13T11:07:00,mfh,68.24
2024-04-13T11:08:00,mfh,68.15
2024-04-13T11:09:00,mfh,68.35
2024-04-13T11:10:00,mfh,67.97
2024-04-13T11:11:00,mfh,75.00
2024-04-13T11:12:00,mfh,75.00
2024-04-13T11:13:00,mfh,74.84
2024-04-13T11:14:00,mfh,74.48
2024-04-13T11:15:00,mfh,74.36
2024-04-13T11:16:00,mfh,74.23
2024-04-13T11:17:00,mfh,74.12
2024-04-13T11:18:00,mfh,73.91
2024-04-13T11:19:00,mfh,73.83
2024-04-13T11:20:00,mfh,73.40
2024-04-13T11:21:00,mfh,73.36
2024-04-13T11:22:00,mfh,74.03
2024-04-13T11:23:00,mfh,79.28
2024-04-13T11:24:00,mfh,78.67
2024-04-13T11:25:00,mfh,79.06
2024-04-13T11:26:00,mfh,76.34
2024-04-13T11:27:00,mfh,72.87
2024-04-13T11:28:00,mfh,69.11
2024-04-13T11:29:00,mfh,67.75
2024-04-13T11:30:00,mfh,67.71
2024-04-13T11:31:00,mfh,67.69
2024-04-13T11:32:00,mfh,67.12
2024-04-13T11:33:00,mfh,67.01
2024-04-13T11:34:00,mfh,66.56
2024-04-13T11:35:00,mfh,65.74
2024-04-13T11:36:00,mfh,66.63
2024-04-13T11:37:00,mfh,65.83
2024-04-13T11:38:00,mfh,64.73
2024-04-13T11:39:00,mfh,64.72
2024-04-13T11:40:00,mfh,64.59
2024-04-13T11:41:00,mfh,65.00
2024-04-13T11:42:00,mfh,65.92
2024-04-13T11:43:00,mfh,66.33
2024-04-13T11:44:00,mfh,61.36
2024-04-13T11:45:00,mfh,61.38
2024-04-13T11:46:00,mfh,62.44
2024-04-13T11:47:00,mfh,62.58
2024-04-13T11:48:00,mfh,62.55
2024-04-13T11:49:00,mfh,62.72
2024-04-13T11:50:00,mfh,62.63
2024-04-13T11:51:00,mfh,62.75
2024-04-13T11:52:00,mfh,62.92
2024-04-13T11:53:00,mfh,62.77
2024-04-13T11:54:00,mfh,62.76
2024-04-13T11:55:00,mfh,63.32
2024-04-13T11:56:00,mfh,64.23
2024-04-13T11:57:00,mfh,63.33
2024-04-13T11:58:00,mfh,63.37
2024-04-13T11:59:00,mfh,63.12
2024-04-13T12:00:00,mfh,63.58
2024-04-13T12:01:00,mfh,71.64
2024-04-13T12:02:00,mfh,78.89
2024-04-13T12:03:00,mfh,78.94
2024-04-13T12:04:00,mfh,79.49
2024-04-13T12:05:00,mfh,79.00
2024-04-13T12:06:00,mfh,78.81
2024-04-13T12:07:00,mfh,78.28
2024-04-13T12:08:00,mfh,78.40
2024-04-13T12:09:00,mfh,79.61
2024-04-13T12:10:00,mfh,78.72
2024-04-13T12:11:00,mfh,78.81
2024-04-13T12:12:00,mfh,79.01
2024-04-13T12:13:00,mfh,78.65
2024-04-13T12:14:00,mfh,78.79
2024-04-13T12:15:00,mfh,78.71
2024-04-13T12:16:00,mfh,78.57
2024-04-13T12:17:00,mfh,78.65
2024-04-13T12:18:00,mfh,78.58
2024-04-13T12:19:00,mfh,78.53
2024-04-13T12:20:00,mfh,78.61
2024-04-13T12:21:00,mfh,78.75
2024-04-13T12:22:00,mfh,78.41
2024-04-13T12:23:00,mfh,78.37
2024-04-13T12:24:00,mfh,78.44
2024-04-13T12:25:00,mfh,78.08
2024-04-13T12:26:00,mfh,78.14
2024-04-13T12:27:00,mfh,76.85
2024-04-13T12:28:00,mfh,77.87
2024-04-13T12:29:00,mfh,78.19
2024-04-13T12:30:00,mfh,78.06
2024-04-13T12:31:00,mfh,78.42
2024-04-13T12:32:00,mfh,77.74
2024-04-13T12:33:00,mfh,77.15
2024-04-13T12:34:00,mfh,77.28
2024-04-13T12:35:00,mfh,77.40
2024-04-13T12:36:00,mfh,77.49
2024-04-13T12:37:00,mfh,77.87
2024-04-13T12:38:00,mfh,77.78
2024-04-13T12:39:00,mfh,78.49
2024-04-13T12:40:00,mfh,78.22
2024-04-13T12:41:00,mfh,78.09
2024-04-13T12:42:00,mfh,76.95
2024-04-13T12:43:00,mfh,77.97
2024-04-13T12:44:00,mfh,78.65
2024-04-13T12:45:00,mfh,79.09
2024-04-13T12:46:00,mfh,79.07
2024-04-13T12:47:00,mfh,78.84
2024-04-13T12:48:00,mfh,78.08
2024-04-13T12:49:00,mfh,78.31
2024-04-13T12:50:00,mfh,79.65
2024-04-13T12:51:00,mfh,79.02
2024-04-13T12:52:00,mfh,79.55
2024-04-13T12:53:00,mfh,79.68
2024-04-13T12:54:00,mfh,79.79
2024-04-13T12:55:00,mfh,78.51
2024-04-13T12:56:00,mfh,75.68
2024-04-13T12:57:00,mfh,76.11
2024-04-13T12:58:00,mfh,75.84
2024-04-13T12:59:00,mfh,76.35
2024-04-13T13:00:00,mfh,76.68
2024-04-13T13:01:00,mfh,76.88
2024-04-13T13:02:00,mfh,76.97
2024-04-13T13:03:00,mfh,76.32
2024-04-13T13:04:00,mfh,76.64
2024-04-13T13:05:00,mfh,77.49
2024-04-13T13:06:00,mfh,77.05
2024-04-13T13:07:00,mfh,76.36
2024-04-13T13:08:00,mfh,76.40
2024-04-13T13:09:00,mfh,76.88
2024-04-13T13:10:00,mfh,76.59
2024-04-13T13:11:00,mfh,76.56
2024-04-13T13:12:00,mfh,76.97
2024-04-13T13:13:00,mfh,76.42
2024-04-13T13:14:00,mfh,76.26
2024-04-13T13:15:00,mfh,72.94
2024-04-13T13:16:00,mfh,72.55
2024-04-13T13:17:00,mfh,69.67
2024-04-13T13:18:00,mfh,68.20